Hourly Data Report for October 02, 2017

All times are specified in Local Standard Time (LST). Add 1 hour to adjust for Daylight Saving Time where and when it is observed.

MALAHAT
BRITISH COLUMBIA

48°34'29.700" N
123°31'47.700" W
365.80 m
1014820
71774
WKH

Download Data

Hourly Data (October 2017)
Hourly Data Report for October 2, 2017
Temp Definition
°C
Dew Point Temp Definition
°C
Rel Hum Definition
%
Wind Dir Definition
10's deg

Wind Spd Definition
km/h
Visibility Definition
km
Stn Press Definition
kPa
Hmdx Definition


Wind Chill Definition


Weather Definition


TIME
00:00 9.6 2.2 60 LegendMM LegendMM   97.60     LegendNANA
01:00 8.7 2.5 65 LegendMM LegendMM   97.59     LegendNANA
02:00 8.6 3.1 68 LegendMM LegendMM   97.59     LegendNANA
03:00 8.9 3.4 68 LegendMM LegendMM   97.59     LegendNANA
04:00 8.7 3.7 71 LegendMM LegendMM   97.62     LegendNANA
05:00 9.2 3.8 69 LegendMM LegendMM   97.63     LegendNANA
06:00 9.4 3.4 66 LegendMM LegendMM   97.62     LegendNANA
07:00 9.4 3.6 67 LegendMM LegendMM   97.65     LegendNANA
08:00 10.9 3.7 61 LegendMM LegendMM   97.66     LegendNANA
09:00 11.9 3.5 56 LegendMM LegendMM   97.69     LegendNANA
10:00 12.8 3.8 54 LegendMM LegendMM   97.73     LegendNANA
11:00 14.5 3.5 48 LegendMM LegendMM   97.76     LegendNANA
12:00 15.0 1.9 41 LegendMM LegendMM   97.79     LegendNANA
13:00 16.1 1.6 38 LegendMM LegendMM   97.80     LegendNANA
14:00 16.4 0.0 33 LegendMM LegendMM   97.80     LegendNANA
15:00 14.4 -1.1 35 LegendMM LegendMM   97.82     LegendNANA
16:00 13.4 -0.1 40 LegendMM LegendMM   97.84     LegendNANA
17:00 12.7 0.1 42 LegendMM LegendMM   97.86     LegendNANA
18:00 12.1 -1.2 40 LegendMM LegendMM   97.87     LegendNANA
19:00 11.8 -1.7 39 LegendMM LegendMM   97.92     LegendNANA
20:00 12.3 -3.0 34 LegendMM LegendMM   97.97     LegendNANA
21:00 12.5 -3.6 32 LegendMM LegendMM   98.01     LegendNANA
22:00 12.5 -3.2 33 LegendMM LegendMM   98.03     LegendNANA
23:00 12.0 -2.4 37 LegendMM LegendMM   98.07     LegendNANA

Notes on Data Quality.

Legend

  • E = Estimated
  • M = Missing
  • NA = Not Available
  • ‡ = Partner data that is not subject to review by the National Climate Archives
Date modified: